Tracking 30009 objects as of 7-Dec-2024
HD Live streaming from Space Station
objects crossing your sky now

BREEZE-M R/B

Track BREEZE-M R/B now!


NORAD ID: 28925
Int'l Code: 2005-052B
Perigee: 6,163.7 km
Apogee: 35,378.6 km
Inclination: 20.1 °
Period: 741.7 minutes
Semi major axis: 27142 km
RCS: 0.6439 m2 (medium)
Launch date: December 29, 2005
Source: Commonwealth of Independent States (former USSR) (CIS)
Launch site: TYURATAM MISSILE AND SPACE COMPLEX (TTMTR)

Note: This is a ROCKET BODY
Your satellite tracking list
Your tracking list is empty




NASA's NSSDC Master Catalog

Two Line Element Set (TLE):
1 28925U 05052B   24342.53287139 -.00000125  00000-0  00000-0 0  9990
2 28925  20.1089  24.2803 5381829  89.2155   1.3547  1.94149335134279
Source of the keplerian elements: AFSPC